TimeEDT,TemperatureF,Dew PointF,Humidity,Sea Level PressureIn,VisibilityMPH,Wind Direction,Wind SpeedMPH,Gust SpeedMPH,PrecipitationIn,Events,Conditions,WindDirDegrees,DateUTC
12:27 AM,57.2,55.4,94,29.91,10.0,Calm,Calm,-,0.00,,Overcast,0,2013-09-05 04:27:00
12:52 AM,57.9,55.0,90,29.90,10.0,Calm,Calm,-,0.00,,Overcast,0,2013-09-05 04:52:00
1:01 AM,57.2,55.4,94,29.90,9.0,Calm,Calm,-,0.00,Rain,Light Rain,0,2013-09-05 05:01:00
1:52 AM,57.9,55.0,90,29.90,7.0,SSW,3.5,-,0.02,Rain,Light Rain,200,2013-09-05 05:52:00
2:52 AM,55.9,53.1,90,29.90,7.0,South,3.5,-,0.02,Rain,Light Rain,180,2013-09-05 06:52:00
3:15 AM,55.4,51.8,88,29.90,10.0,Calm,Calm,-,0.00,Rain,Light Rain,0,2013-09-05 07:15:00
3:38 AM,55.4,51.8,88,29.91,6.0,SSW,3.5,-,0.01,Rain,Light Rain,200,2013-09-05 07:38:00
3:52 AM,55.0,51.1,86,29.91,5.0,Calm,Calm,-,0.02,Rain,Light Rain,0,2013-09-05 07:52:00
4:02 AM,53.6,51.8,94,29.91,6.0,SW,3.5,-,0.01,Rain,Light Rain,220,2013-09-05 08:02:00
4:15 AM,55.4,51.8,88,29.91,10.0,Calm,Calm,-,0.01,,Overcast,0,2013-09-05 08:15:00
4:52 AM,55.0,52.0,89,29.92,10.0,Calm,Calm,-,0.01,,Overcast,0,2013-09-05 08:52:00
5:52 AM,53.1,48.0,83,29.94,10.0,Calm,Calm,-,N/A,,Overcast,0,2013-09-05 09:52:00
6:02 AM,53.6,48.2,82,29.94,10.0,NNW,3.5,-,N/A,,Overcast,330,2013-09-05 10:02:00
6:18 AM,53.6,48.2,82,29.96,10.0,Calm,Calm,-,N/A,,Overcast,0,2013-09-05 10:18:00
6:52 AM,53.1,48.0,83,29.98,10.0,Calm,Calm,-,N/A,,Overcast,0,2013-09-05 10:52:00
7:52 AM,53.1,48.0,83,30.01,10.0,Calm,Calm,-,N/A,,Mostly Cloudy,0,2013-09-05 11:52:00
8:52 AM,54.0,46.9,77,30.01,10.0,Calm,Calm,-,0.00,,Partly Cloudy,0,2013-09-05 12:52:00
9:52 AM,57.9,46.9,67,30.02,10.0,NNE,5.8,-,N/A,,Mostly Cloudy,30,2013-09-05 13:52:00
10:09 AM,59.0,46.4,63,30.01,10.0,Calm,Calm,-,N/A,,Mostly Cloudy,0,2013-09-05 14:09:00
10:19 AM,57.2,44.6,63,30.01,10.0,Variable,5.8,-,N/A,,Scattered Clouds,0,2013-09-05 14:19:00
10:52 AM,57.9,42.1,56,30.01,10.0,Calm,Calm,-,N/A,,Mostly Cloudy,0,2013-09-05 14:52:00
11:52 AM,59.0,39.0,48,30.01,10.0,NW,6.9,17.3,N/A,,Partly Cloudy,310,2013-09-05 15:52:00
12:52 PM,60.1,35.1,39,30.02,10.0,NW,8.1,19.6,N/A,,Scattered Clouds,320,2013-09-05 16:52:00
1:52 PM,60.1,37.0,42,30.03,10.0,WNW,6.9,-,N/A,,Mostly Cloudy,290,2013-09-05 17:52:00
2:52 PM,61.0,37.0,41,30.03,10.0,NW,9.2,-,N/A,,Mostly Cloudy,310,2013-09-05 18:52:00
3:52 PM,61.0,37.0,41,30.04,10.0,WNW,9.2,18.4,N/A,,Mostly Cloudy,300,2013-09-05 19:52:00
4:52 PM,61.0,37.9,42,30.04,10.0,WNW,10.4,17.3,N/A,,Scattered Clouds,290,2013-09-05 20:52:00
5:52 PM,57.9,37.9,47,30.06,10.0,NW,6.9,-,N/A,,Overcast,310,2013-09-05 21:52:00
6:52 PM,55.0,37.0,51,30.09,10.0,WNW,5.8,-,N/A,,Partly Cloudy,300,2013-09-05 22:52:00
7:52 PM,52.0,36.0,54,30.12,10.0,Calm,Calm,-,N/A,,Clear,0,2013-09-05 23:52:00
8:52 PM,46.0,39.0,76,30.15,10.0,South,3.5,-,N/A,,Clear,180,2013-09-06 00:52:00
9:52 PM,44.1,39.0,82,30.17,10.0,Calm,Calm,-,N/A,,Clear,0,2013-09-06 01:52:00
10:52 PM,42.1,37.9,85,30.18,10.0,Calm,Calm,-,N/A,,Clear,0,2013-09-06 02:52:00
11:52 PM,39.9,36.0,86,30.18,10.0,Calm,Calm,-,0.00,,Clear,0,2013-09-06 03:52:00